• In Belarus
  • List of Countries
  • For 7 days
  • Water Temperature
  • Satellite Maps
  • Weather Map
  • Weather Widgets
  • user-avatar
    Login

    Hourly Weather Khashuri

    Today, 19 January, Friday

    Time Temperature Precipitation Wind Pressure Humidity
    00:00 -5°C° 0.2 mm 3 mps 602 mmHg 83%
    01:00 -5°C° 0.1 mm 3 mps 602 mmHg 83%
    02:00 -5°C° 0.1 mm 3 mps 603 mmHg 84%
    03:00 -4°C° 0 mm 2 mps 602 mmHg 86%
    04:00 -4°C° 0.1 mm 2 mps 603 mmHg 85%
    05:00 -4°C° 0.1 mm 2 mps 603 mmHg 84%
    06:00 -5°C° 0.1 mm 3 mps 603 mmHg 83%
    07:00 -4°C° 0.1 mm 2 mps 604 mmHg 81%
    08:00 -4°C° 0.1 mm 2 mps 604 mmHg 80%
    09:00 -3°C° 0.1 mm 2 mps 604 mmHg 79%
    10:00 -2°C° 0.1 mm 2 mps 605 mmHg 77%
    11:00 -1°C° 0.1 mm 2 mps 605 mmHg 75%
    12:00 +2°C° 0.1 mm 1 mps 606 mmHg 74%
    13:00 +2°C° 0.1 mm 1 mps 606 mmHg 76%
    14:00 +1°C° 0.1 mm 1 mps 606 mmHg 78%
    15:00 +1°C° 0.1 mm 1 mps 606 mmHg 80%
    16:00 0°C° 0.2 mm 1 mps 607 mmHg 83%
    17:00 0°C° 0.2 mm 1 mps 607 mmHg 87%
    18:00 -1°C° 0.2 mm 1 mps 608 mmHg 90%
    19:00 -1°C° 0.2 mm 1 mps 608 mmHg 91%
    20:00 -2°C° 0.2 mm 1 mps 608 mmHg 92%
    21:00 -4°C° 0.2 mm 2 mps 609 mmHg 93%
    22:00 -4°C° 0.2 mm 2 mps 609 mmHg 94%
    23:00 -4°C° 0.2 mm 2 mps 609 mmHg 94%

    Tomorrow, 20 January, Saturday

    Time Temperature Precipitation Wind Pressure Humidity
    00:00 -4°C° 0.2 mm 2 mps 610 mmHg 94%
    01:00 -5°C° 0.1 mm 2 mps 610 mmHg 93%
    02:00 -5°C° 0.1 mm 2 mps 610 mmHg 93%
    03:00 -5°C° 0.1 mm 2 mps 610 mmHg 92%
    04:00 -5°C° 0 mm 2 mps 611 mmHg 92%
    05:00 -6°C° 0 mm 2 mps 611 mmHg 92%
    06:00 -6°C° 0 mm 2 mps 611 mmHg 92%
    07:00 -6°C° 0 mm 2 mps 611 mmHg 91%
    08:00 -5°C° 0 mm 2 mps 612 mmHg 89%
    09:00 -5°C° 0 mm 2 mps 612 mmHg 87%
    10:00 -2°C° 0 mm 1 mps 612 mmHg 83%
    11:00 -1°C° 0 mm 1 mps 612 mmHg 79%
    12:00 0°C° 0 mm 1 mps 612 mmHg 75%
    13:00 0°C° 0 mm 1 mps 612 mmHg 74%
    14:00 0°C° 0 mm 1 mps 612 mmHg 73%
    15:00 0°C° 0 mm 1 mps 612 mmHg 73%
    16:00 -1°C° 0 mm 1 mps 612 mmHg 73%
    17:00 -2°C° 0 mm 1 mps 612 mmHg 74%
    18:00 -6°C° 0 mm 2 mps 612 mmHg 75%
    19:00 -6°C° 0 mm 2 mps 612 mmHg 72%
    20:00 -6°C° 0 mm 2 mps 612 mmHg 70%
    21:00 -7°C° 0 mm 2 mps 612 mmHg 67%
    22:00 -7°C° 0 mm 2 mps 612 mmHg 67%
    23:00 -7°C° 0 mm 2 mps 612 mmHg 66%

    Day after tomorrow, 21 January, Sunday

    Time Temperature Precipitation Wind Pressure Humidity
    00:00 -7°C° 0 mm 2 mps 612 mmHg 66%
    01:00 -8°C° 0 mm 3 mps 612 mmHg 66%
    02:00 -8°C° 0 mm 3 mps 612 mmHg 67%
    03:00 -8°C° 0 mm 3 mps 611 mmHg 67%
    04:00 -8°C° 0 mm 3 mps 611 mmHg 66%
    05:00 -8°C° 0 mm 3 mps 611 mmHg 65%
    06:00 -9°C° 0 mm 3 mps 611 mmHg 64%
    07:00 -8°C° 0 mm 3 mps 611 mmHg 63%
    08:00 -7°C° 0 mm 3 mps 612 mmHg 62%
    09:00 -7°C° 0 mm 3 mps 612 mmHg 61%
    10:00 -4°C° 0 mm 2 mps 612 mmHg 60%
    11:00 -2°C° 0 mm 2 mps 612 mmHg 59%
    12:00 -1°C° 0 mm 2 mps 613 mmHg 58%
    13:00 -1°C° 0 mm 2 mps 613 mmHg 59%
    14:00 -1°C° 0 mm 2 mps 613 mmHg 60%
    15:00 +2°C° 0 mm 1 mps 613 mmHg 61%
    16:00 -2°C° 0 mm 2 mps 612 mmHg 62%
    17:00 -3°C° 0 mm 2 mps 612 mmHg 63%
    18:00 -5°C° 0 mm 2 mps 612 mmHg 65%
    19:00 -5°C° 0 mm 2 mps 612 mmHg 64%
    20:00 -6°C° 0 mm 2 mps 611 mmHg 62%
    21:00 -6°C° 0 mm 2 mps 611 mmHg 61%
    22:00 -6°C° 0 mm 2 mps 611 mmHg 62%
    23:00 -6°C° 0 mm 2 mps 610 mmHg 62%

    22 January, Monday

    Time Temperature Precipitation Wind Pressure Humidity
    00:00 -7°C° 0 mm 3 mps 610 mmHg 62%
    01:00 -7°C° 0 mm 3 mps 609 mmHg 63%
    02:00 -7°C° 0 mm 3 mps 609 mmHg 63%
    03:00 -7°C° 0 mm 3 mps 609 mmHg 64%
    04:00 -7°C° 0 mm 3 mps 608 mmHg 64%
    05:00 -7°C° 0 mm 3 mps 608 mmHg 65%
    06:00 -7°C° 0 mm 3 mps 607 mmHg 65%
    07:00 -7°C° 0 mm 3 mps 607 mmHg 65%
    08:00 -6°C° 0 mm 3 mps 607 mmHg 64%
    09:00 -6°C° 0 mm 3 mps 607 mmHg 63%
    10:00 -4°C° 0 mm 3 mps 607 mmHg 61%
    11:00 -2°C° 0 mm 3 mps 607 mmHg 59%
    12:00 -2°C° 0 mm 4 mps 607 mmHg 57%
    13:00 -1°C° 0 mm 3 mps 607 mmHg 57%
    14:00 0°C° 0 mm 3 mps 607 mmHg 58%
    15:00 0°C° 0 mm 3 mps 606 mmHg 58%
    16:00 -1°C° 0 mm 3 mps 606 mmHg 61%
    17:00 -4°C° 0 mm 3 mps 606 mmHg 63%
    18:00 -5°C° 0 mm 3 mps 606 mmHg 66%
    19:00 -4°C° 0 mm 2 mps 606 mmHg 66%
    20:00 -4°C° 0 mm 2 mps 606 mmHg 66%
    21:00 -4°C° 0 mm 2 mps 606 mmHg 66%
    22:00 -4°C° 0 mm 2 mps 606 mmHg 68%
    23:00 -5°C° 0 mm 2 mps 605 mmHg 70%

    23 January, Tuesday

    Time Temperature Precipitation Wind Pressure Humidity
    00:00 -5°C° 0 mm 2 mps 605 mmHg 71%
    01:00 -5°C° 0 mm 2 mps 605 mmHg 72%
    02:00 -6°C° 0 mm 2 mps 605 mmHg 73%
    03:00 -7°C° 0 mm 2 mps 605 mmHg 74%
    04:00 -7°C° 0 mm 2 mps 605 mmHg 74%
    05:00 -7°C° 0 mm 2 mps 604 mmHg 75%
    06:00 -8°C° 0 mm 2 mps 604 mmHg 75%
    07:00 -7°C° 0 mm 2 mps 605 mmHg 74%
    08:00 -6°C° 0 mm 2 mps 605 mmHg 73%
    09:00 -6°C° 0 mm 2 mps 605 mmHg 72%
    10:00 -4°C° 0 mm 2 mps 606 mmHg 71%
    11:00 -3°C° 0 mm 2 mps 606 mmHg 69%
    12:00 -1°C° 0 mm 2 mps 606 mmHg 67%
    13:00 -1°C° 0.1 mm 2 mps 606 mmHg 69%
    14:00 +1°C° 0.1 mm 1 mps 606 mmHg 71%
    15:00 0°C° 0.1 mm 1 mps 606 mmHg 72%
    16:00 -1°C° 0.1 mm 1 mps 606 mmHg 76%
    17:00 -2°C° 0.1 mm 1 mps 606 mmHg 81%
    18:00 -3°C° 0.1 mm 1 mps 606 mmHg 85%
    19:00 -3°C° 0.4 mm 1 mps 606 mmHg 87%
    20:00 -3°C° 0.4 mm 1 mps 606 mmHg 89%
    21:00 -3°C° 0.4 mm 1 mps 607 mmHg 92%
    22:00 -3°C° 0.5 mm 1 mps 607 mmHg 92%
    23:00 -5°C° 0.5 mm 2 mps 607 mmHg 93%

    24 January, Wednesday

    Time Temperature Precipitation Wind Pressure Humidity
    00:00 -5°C° 0.5 mm 2 mps 607 mmHg 94%
    01:00 -6°C° 0.4 mm 2 mps 607 mmHg 94%
    02:00 -6°C° 0.4 mm 2 mps 607 mmHg 94%
    03:00 -6°C° 0.4 mm 2 mps 607 mmHg 94%
    04:00 -6°C° 0.2 mm 2 mps 607 mmHg 93%
    05:00 -7°C° 0.2 mm 2 mps 608 mmHg 93%
    06:00 -7°C° 0.2 mm 2 mps 608 mmHg 93%
    07:00 -7°C° 0.1 mm 2 mps 608 mmHg 92%
    08:00 -7°C° 0.1 mm 2 mps 609 mmHg 90%
    09:00 -7°C° 0.1 mm 2 mps 609 mmHg 89%
    10:00 -6°C° 0.1 mm 2 mps 609 mmHg 86%
    11:00 -6°C° 0.1 mm 2 mps 610 mmHg 83%
    12:00 -5°C° 0.1 mm 2 mps 610 mmHg 80%
    13:00 -5°C° 0.1 mm 2 mps 610 mmHg 80%
    14:00 -5°C° 0.1 mm 2 mps 610 mmHg 80%
    15:00 -5°C° 0.1 mm 2 mps 610 mmHg 80%
    16:00 -4°C° 0.1 mm 1 mps 610 mmHg 83%
    17:00 -6°C° 0.1 mm 1 mps 610 mmHg 86%
    18:00 -6°C° 0.1 mm 1 mps 610 mmHg 89%
    19:00 -7°C° 0 mm 1 mps 611 mmHg 89%
    20:00 -7°C° 0 mm 1 mps 611 mmHg 89%
    21:00 -7°C° 0 mm 1 mps 611 mmHg 89%
    22:00 -7°C° 0 mm 0 mps 611 mmHg 88%
    23:00 -8°C° 0 mm 0 mps 611 mmHg 87%
    Show more